Regional Weather Roundup
Issued by NWS Wakefield, VA

Home | Current Version | Previous Version | Text Only | Print | Product List | Glossary Off
Versions: 1 2 3 4 5 6 7 8 9 10 11 12 13 14 15 16 17 18 19 20 21 22 23 24 25 26 27 28 29 30 31 32 33 34 35 36 37 38 39 40 41 42 43 44 45 46 47 48 49 50

599
ASUS41 KAKQ 192315
RWRAKQ

REGIONAL WEATHER ROUNDUP
NATIONAL WEATHER SERVICE WAKEFIELD VA
600 PM EST FRI JAN 19 2018

Note: "fair" indicates few or no clouds below 12,000 feet with no
significant weather and/or obstructions to visibility. * = Denotes
station may not report precipitation (e.g., rain,snow,etc.),
thunder or fog.

VAZ042-051-052>054-056-200000-
NORTHERN VIRGINIA

CITY           SKY/WX    TMP DP  RH WIND       PRES   REMARKS
WASH NATIONAL  FAIR      45  13  27 S7        30.05R
DULLES         FAIR      38  12  34 S5        30.03S
FORT BELVOIR   FAIR      39  12  32 CALM      30.04S
QUANTICO       NOT AVBL
FREDERICKSBRG* FAIR      46  12  25 SW6       30.04S
STAFFORD*      FAIR      47   6  18 SW3       30.08S
WARRENTON      FAIR      35   5  28 CALM      30.03R
CULPEPER*      FAIR      37  12  35 CALM      30.04S
MANASSAS*      FAIR      36  15  42 SE5       30.04R
LEESBURG*      FAIR      46  19  34 CALM      30.03S
WINCHESTER     FAIR      39  16  38 CALM      30.03S
FRONT ROYAL*   FAIR      50   9  18 SE3       30.00F
LURAY*         FAIR      45  10  24 SW5       30.01S
$$

VAZ048-049-060>072-079>083-200000-
CENTRAL AND SOUTH CENTRAL VIRGINIA

CITY           SKY/WX    TMP DP  RH WIND       PRES   REMARKS
RICHMOND       FAIR      47   8  20 SW5       30.07R
CHESTERFIELD*  NOT AVBL
PETERSBURG*    FAIR      34  16  47 CALM      30.09S
HANOVER        FAIR      48   7  18 SW5       30.08S
TAPPAHANNOCK*  FAIR      45  10  24 SW3       30.07R
QUINTON*       FAIR      47  10  22 SW5       30.07S
CHARLOTTSVILLE FAIR      50   3  14 VRB3      30.03R
GORDONSVILLE*  FAIR      40  13  33 CALM      30.04R
ORANGE*        FAIR      46   7  19 CALM      30.04R
LOUISA*        FAIR      44   5  20 S3        30.09R
BUMPASS*       FAIR      45   2  17 SW5       30.06R
FARMVILLE*     FAIR      45   9  23 SW5       30.06S
CREWE*         FAIR      41  13  32 CALM      30.08S
FORT PICKETT*  FAIR      42  12  30 SW5       30.08F
CHASE CITY*    FAIR      40  12  31 CALM      30.10S
CLARKSVILLE*   FAIR      43  14  31 CALM      30.10S
SOUTH HILL*    FAIR      38  18  43 CALM      30.16R
LAWRENCEVILLE* FAIR      40  11  30 CALM      30.10S
EMPORIA*       FAIR      37  18  44 CALM      30.12S
$$

VAZ088>098-200000-
SOUTHEAST VIRGINIA

CITY           SKY/WX    TMP DP  RH WIND       PRES   REMARKS
NORFOLK        FAIR      46  16  30 SW6       30.08R
VIRGINIA BEACH FAIR      45  14  28 CALM      30.08R
NORFOLK NAVAL  FAIR      44  17  33 SW5       30.09S
WEST POINT*    FAIR      39  17  41 CALM      30.09R
SALUDA*        FAIR      35  29  81 CALM      30.07S
NEWPORT NEWS   NOT AVBL
LANGLEY AFB    FAIR      44  19  36 SW6       30.08S
FORT EUSTIS    FAIR      42  21  43 SW5       30.05S
WILLIAMSBURG*  FAIR      39  21  48 CALM      30.09R
HR EXEC AP*    FAIR      35  21  56 CALM      30.10R
FRANKLIN*      FAIR      47  13  25 SW3       30.10S
US460-WAKEFLD  FAIR      41  18  39 SW3       30.09S
$$

VAZ020-022-025-037-045-200000-
WEST CENTRAL AND SOUTHWEST VIRGINIA

CITY           SKY/WX    TMP DP  RH WIND       PRES   REMARKS
STAUNTON*      FAIR      44   6  21 SW10      30.04S
WAYNESBORO*    FAIR      44   2  17 SW7       30.03S
HOT SPRINGS VA FAIR      36 -17   9 W18G28    30.01R
LYNCHBURG      FAIR      37  15  40 CALM      30.08R
DANVILLE       FAIR      39  14  36 SW3       30.11S
SOUTH BOSTON*  FAIR      42   7  23 SW3       30.11S
MARTINSVILLE   FAIR      39  11  32 CALM      30.13S
ROANOKE        FAIR      46  11  24 W10       30.10R
BLACKSBURG     FAIR      38  11  33 CALM      30.12S
DUBLIN*        FAIR      38   9  30 SW12      30.11S
MARION*        FAIR      37  -2  19 W16       30.13S
HILLSVILLE*    FAIR      40  -3  15 CALM      30.09S
RICHLANDS*     FAIR      36   5  27 W8        30.13R
WISE*          FAIR      34  16  47 S5        30.13S
ABINGDON*      FAIR      38   8  28 CALM      30.16S
$$

MDZ021>025-VAZ099-100-200000-
SOUTHERN MARYLAND AND THE DELMARVA PENINSULA

CITY           SKY/WX    TMP DP  RH WIND       PRES   REMARKS
PATUXENT RIVER PTCLDY    37  18  46 S6        30.06S
BAY BRIDGE APT FAIR      37  21  52 S5        30.05S
LEONARDTOWN    FAIR      36  19  51 CALM      30.08R
DOVER          FAIR      38  22  53 S6        30.04R
GEORGETOWN     FAIR      37  18  46 CALM      30.06S
EASTON         CLEAR     41  16  36 SW6       30.09S
CAMBRIDGE      CLEAR     36  21  55 SE6       30.07S
SALISBURY      FAIR      34  21  59 CALM      30.07R
OCEAN CITY     FAIR      34  20  56 CALM      30.08R
WALLOPS ISLAND FAIR      36  21  54 CALM      30.09R
ACCOMACK*      FAIR      35  21  57 SE3       30.08S
$$

NCZ012>017-030>032-200000-
NORTH CENTRAL AND EASTERN NORTH CAROLINA

CITY           SKY/WX    TMP DP  RH WIND       PRES   REMARKS
ROANOKE RAPIDS FAIR      41  21  45 SW5       30.12R
RALEIGH        FAIR      42  24  49 SW6       30.13F
ELIZABETH CITY FAIR      44  29  55 S8        30.10F
AHOSKIE*       FAIR      38  21  51 CALM      30.12R
EDENTON*       FAIR      50  22  33 W6        30.12S
CURRITUCK*     FAIR      46  24  43 CALM      30.10S
KILL DEVIL HLS FAIR      44  21  40 CALM      30.10S
MANTEO         FAIR      41  28  60 CALM      30.12S
CAPE HATTERAS  FAIR      49  40  71 SW9       30.13F
TARBORO*       NOT AVBL
GOLDSBORO      FAIR      47  23  39 SW5       30.13R
WASHINGTON     FAIR      46  22  37 CALM      30.13S
GREENVILLE     FAIR      46  21  36 CALM      30.15R
NEW BERN       FAIR      49  23  36 CALM      30.15S
WILMINGTON     FAIR      49  29  46 S8        30.17S
$$

VAZ048-200000-
ELSEWHERE

CITY           SKY/WX    TMP DP  RH WIND       PRES   REMARKS
HARRISBURG PA  FAIR      39  23  52 SW7       30.00R
BALTIMORE      FAIR      42  17  36 S5        30.03R
ANNAPOLIS      FAIR      40  22  48 SE3       30.04F
ANDREWS AFB    FAIR      40  12  31 S7        30.03S
PHILADELPHIA   FAIR      40  19  43 SW7       30.02S
HENDERSON NC   FAIR      42  14  32 SW5       30.12R
GREENSBORO     FAIR      44  12  27 SW7       30.12S
ROCKY MOUNT    NOT AVBL
$$

VAZ100-200000-
MARINE

STATION/POSITION TIME  TEMP    WIND        PRES    WAVE   SWELL
                       AIR SEA DIR/SP/G            HT/PER HT/PER
                 (UTC) (F)     (DEG/KT/KT) (MB)    (FT/S) (FT/S)
BRANDYWINE LGT   2242                      1018.0R
CAPE MAY NJ      2242      33              1017.2S
LEWES DE         2242      33              1017.6S
15NM E FENWICK I 2250   40 40  200/ 10/ 12 1018.7R   2/10   2/10
OCEAN-CITY-INLET 2242      36              1018.9R
WACHAPREAGUE VA  2242      35              1018.5F
THOMAS POINT MD  2300   36 32  190/ 10/ 11   N/A
GOOSES REEF MD   2300   35 33  200/ 10/ 12 1018.3    1/ 2
COVE POINT MD    2242                      1018.6F
SOLOMONS ISLAND  2242      35              1017.7R
BISHOPS HEAD MD  2242      33              1018.6R
PINEY POINT MD   2230          110/  8/  8   N/A
POTOMAC MD       2300   35 34  200/  8/  8 1017.5    1
CAMBRIDGE MD     2242      32              1018.6F
LEWISETTA VA     2242      32              1018.0R
RAPPAHANNOCK LGT 2242                      1018.8F
STINGRAY PT      2300   37 34  190/  6/  6 1021.3    0
YORK RVR RNG VA  2242                      1018.8F
YORKTOWN VA      2242      35              1018.0F
DOMINION TERM VA 2242                      1018.7F
KIPTOPEKE VA     2242      35                N/A
CAPE HENRY VA    2230   40     100/  5/  6   N/A
WILLOUBY STN VA  2242                      1018.4F
S CRANEY ISL VA  2242                      1018.4S
CAPE HENRY BUOY  2230      40                N/A     2/11   2/11
1ST LANDING BUOY 2300   37 35  160/  6/  6 1018.7    1/ 6
CAPE CHARLES BUO 2251      38                N/A     2/10   2/11
64NM E OF VA BCH 2250   51 58  240/ 16/ 19 1019.6R   4/10   3/10
DUCK PIER NC     2242      39              1018.9F
44100 DUCK FRF   2215      43                N/A     3/11   2/11
44056 DUCK FRF   2230      39                N/A     2/11   2/11
OREGON INLET NC  2242      38              1019.5F
HATTERAS NC      2242      45              1020.2F
DIAMOND SHLS NC  2300   57     250/ 14/ 19 1020.7
CAPE LOOKOUT NC  2300          220/  9/ 12 1021.3F
$$




USA.gov is the U.S. government's official web portal to all federal, state and local government web resources and services.